QPF
0.01 0.01 0.01 0.01 0.01 0.01 0.02 0.02 0.03 0.02 0.01 0.01 0.01 0.01 0.01 0.01 0.01 0.01 0.01 0.02 0.02 0.02 0.02 0.02 0.02 0.02 0.02 0.02 0.02 0.02 0.01 0.01 0.01 0.01 0.00 0.00 0.00 0.01 0.01 0.01 0.01 0.01 0.02 0.03
0.00 0.00 0.00 0.01 0.01 0.01 0.01 0.01 0.01 0.01 0.01 0.01 0.01 0.01 0.01 0.01 0.01 0.01 0.01 0.01 0.02 0.02 0.02 0.02 0.02 0.02 0.01 0.01 0.01 0.01 0.01 0.01 0.01 0.01 0.00 0.00 0.00 0.01 0.01 0.01 0.01 0.01 0.01 0.02
0.01 0.00 0.01 0.01 0.01 0.01 0.01 0.01 0.01 0.01 0.01 0.01 0.01 0.01 0.01 0.01 0.01 0.01 0.01 0.01 0.01 0.01 0.01 0.01 0.01 0.01 0.01 0.01 0.01 0.01 0.01 0.01 0.01 0.01 0.00 0.00 0.00 0.01 0.01 0.01 0.01 0.01 0.02 0.02
0.03 0.02 0.02 0.01 0.00 0.00 0.01 0.01 0.01 0.01 0.01 0.01 0.01 0.01 0.01 0.01 0.01 0.01 0.01 0.01 0.01 0.01 0.01 0.01 0.01 0.01 0.00 0.00 0.00 0.01 0.01 0.01 0.01 0.01 0.00 0.00 0.01 0.01 0.01 0.01 0.01 0.01 0.02 0.02
0.05 0.03 0.01 0.00 0.00 0.00 0.01 0.01 0.01 0.01 0.01 0.00 0.01 0.01 0.01 0.01 0.01 0.01 0.01 0.01 0.01 0.01 0.01 0.01 0.00 0.00 0.00 0.00 0.00 0.00 0.00 0.01 0.01 0.01 0.01 0.00 0.01 0.01 0.01 0.01 0.01 0.01 0.02 0.02
0.07 0.05 0.02 0.00 0.00 0.00 0.00 0.01 0.00 0.00 0.01 0.01 0.01 0.01 0.01 0.01 0.01 0.01 0.01 0.01 0.01 0.00 0.00 0.00 0.00 0.00 0.00 0.00 0.00 0.00 0.00 0.01 0.01 0.01 0.01 0.01 0.01 0.01 0.01 0.01 0.01 0.01 0.01 0.02
0.05 0.05 0.02 0.00 0.00 0.00 0.01 0.01 0.01 0.01 0.01 0.01 0.01 0.01 0.01 0.01 0.00 0.00 0.00 0.00 0.00 0.00 0.00 0.00 0.00 0.00 0.00 0.00 0.00 0.00 0.00 0.01 0.01 0.01 0.01 0.01 0.01 0.01 0.01 0.01 0.01 0.01 0.01 0.02
0.03 0.04 0.02 0.00 0.00 0.01 0.02 0.01 0.01 0.01 0.01 0.01 0.01 0.01 0.01 0.00 0.00 0.00 0.00 0.00 0.00 0.00 0.00 0.00 0.00 0.00 0.00 0.00 0.00 0.01 0.01 0.01 0.01 0.01 0.01 0.01 0.01 0.01 0.01 0.01 0.01 0.01 0.01 0.01
0.03 0.03 0.01 0.01 0.01 0.01 0.01 0.01 0.01 0.01 0.01 0.01 0.01 0.00 0.00 0.00 0.00 0.00 0.00 0.01 0.01 0.01 0.01 0.01 0.01 0.01 0.01 0.01 0.01 0.01 0.01 0.02 0.02 0.02 0.02 0.02 0.02 0.02 0.01 0.01 0.01 0.01 0.01 0.01
0.02 0.02 0.01 0.01 0.01 0.01 0.01 0.01 0.01 0.01 0.01 0.01 0.01 0.01 0.01 0.01 0.01 0.01 0.01 0.01 0.01 0.01 0.01 0.01 0.02 0.02 0.02 0.02 0.02 0.02 0.02 0.02 0.02 0.02 0.02 0.02 0.02 0.02 0.02 0.02 0.02 0.01 0.01 0.01
0.02 0.02 0.02 0.02 0.01 0.01 0.01 0.01 0.01 0.01 0.01 0.01 0.01 0.01 0.01 0.01 0.01 0.01 0.01 0.01 0.01 0.01 0.01 0.02 0.02 0.02 0.02 0.02 0.02 0.03 0.03 0.02 0.02 0.02 0.02 0.02 0.02 0.02 0.02 0.02 0.02 0.02 0.02 0.02
0.02 0.02 0.02 0.02 0.02 0.02 0.02 0.01 0.01 0.01 0.01 0.01 0.01 0.01 0.01 0.01 0.01 0.01 0.01 0.01 0.01 0.01 0.02 0.02 0.02 0.02 0.03 0.03 0.02 0.02 0.02 0.02 0.02 0.02 0.02 0.02 0.02 0.02 0.02 0.02 0.02 0.02 0.03 0.03
0.02 0.02 0.02 0.03 0.02 0.02 0.02 0.02 0.02 0.02 0.01 0.01 0.01 0.01 0.01 0.01 0.01 0.01 0.01 0.01 0.01 0.01 0.01 0.02 0.02 0.02 0.02 0.02 0.02 0.02 0.02 0.02 0.02 0.02 0.02 0.02 0.02 0.02 0.02 0.02 0.02 0.02 0.02 0.02
0.02 0.02 0.02 0.02 0.03 0.03 0.02 0.02 0.01 0.01 0.01 0.01 0.01 0.01 0.01 0.01 0.01 0.01 0.01 0.01 0.01 0.01 0.01 0.01 0.01 0.01 0.01 0.01 0.02 0.02 0.02 0.02 0.02 0.01 0.01 0.01 0.01 0.01 0.01 0.01 0.02 0.02 0.02 0.02
0.02 0.02 0.02 0.02 0.02 0.02 0.02 0.02 0.01 0.01 0.01 0.01 0.01 0.01 0.01 0.01 0.01 0.01 0.01 0.01 0.01 0.01 0.01 0.01 0.01 0.01 0.01 0.01 0.01 0.01 0.01 0.01 0.01 0.01 0.01 0.01 0.01 0.01 0.01 0.01 0.01 0.01 0.01 0.02
0.02 0.02 0.02 0.02 0.02 0.02 0.02 0.02 0.01 0.01 0.01 0.01 0.01 0.01 0.01 0.01 0.01 0.01 0.01 0.01 0.01 0.01 0.01 0.01 0.01 0.01 0.01 0.01 0.01 0.01 0.01 0.01 0.01 0.01 0.01 0.01 0.01 0.01 0.01 0.01 0.01 0.01 0.01 0.01
0.02 0.02 0.02 0.02 0.02 0.02 0.02 0.01 0.01 0.01 0.01 0.01 0.01 0.01 0.01 0.00 0.00 0.00 0.00 0.00 0.00 0.00 0.00 0.00 0.01 0.01 0.01 0.01 0.01 0.01 0.01 0.01 0.01 0.01 0.01 0.01 0.01 0.01 0.01 0.01 0.01 0.01 0.01 0.01
0.01 0.01 0.01 0.01 0.01 0.01 0.01 0.01 0.01 0.01 0.01 0.01 0.00 0.00 0.00 0.00 0.00 0.00 0.00 0.00 0.00 0.00 0.00 0.01 0.01 0.01 0.01 0.01 0.01 0.01 0.01 0.01 0.01 0.01 0.01 0.01 0.01 0.01 0.01 0.01 0.01 0.01 0.01 0.01
0.01 0.01 0.01 0.01 0.01 0.01 0.01 0.01 0.01 0.01 0.00 0.00 0.00 0.00 0.00 0.00 0.00 0.00 0.00 0.00 0.00 0.01 0.01 0.01 0.01 0.01 0.01 0.01 0.01 0.01 0.01 0.01 0.01 0.01 0.01 0.01 0.01 0.01 0.01 0.01 0.01 0.01 0.01 0.01
0.01 0.01 0.01 0.01 0.01 0.01 0.01 0.00 0.00 0.00 0.00 0.00 0.00 0.00 0.00 0.00 0.00 0.00 0.00 0.00 0.00 0.01 0.01 0.01 0.01 0.01 0.01 0.01 0.01 0.01 0.01 0.01 0.01 0.01 0.01 0.01 0.01 0.01 0.01 0.01 0.01 0.01 0.01 0.01
0.01 0.01 0.01 0.01 0.00 0.00 0.00 0.00 0.00 0.00 0.00 0.00 0.00 0.00 0.00 0.00 0.00 0.00 0.00 0.01 0.01 0.01 0.01 0.01 0.01 0.01 0.01 0.01 0.01 0.01 0.01 0.01 0.01 0.01 0.01 0.01 0.01 0.01 0.01 0.01 0.01 0.01 0.01 0.01
0.01 0.00 0.00 0.00 0.00 0.00 0.00 0.00 0.00 0.00 0.00 0.00 0.00 0.00 0.00 0.00 0.00 0.00 0.00 0.00 0.01 0.01 0.01 0.01 0.01 0.01 0.02 0.02 0.02 0.01 0.01 0.01 0.01 0.01 0.01 0.01 0.01 0.01 0.01 0.01 0.01 0.01 0.01 0.01
0.00 0.00 0.00 0.00 0.00 0.00 0.00 0.00 0.00 0.00 0.00 0.00 0.00 0.00 0.00 0.00 0.00 0.00 0.00 0.00 0.01 0.01 0.01 0.01 0.01 0.02 0.02 0.02 0.01 0.01 0.01 0.01 0.01 0.01 0.01 0.01 0.01 0.01 0.01 0.01 0.01 0.01 0.01 0.01
0.00 0.00 0.00 0.00 0.00 0.00 0.00 0.00 0.00 0.00 0.00 0.00 0.00 0.00 0.00 0.00 0.00 0.00 0.00 0.01 0.01 0.01 0.01 0.01 0.01 0.01 0.02 0.02 0.01 0.01 0.01 0.01 0.01 0.01 0.01 0.01 0.01 0.01 0.01 0.01 0.01 0.01 0.01 0.01
0.00 0.00 0.00 0.00 0.00 0.00 0.00 0.00 0.00 0.00 0.00 0.00 0.00 0.00 0.00 0.00 0.00 0.01 0.01 0.01 0.01 0.01 0.01 0.01 0.01 0.01 0.01 0.01 0.00 0.00 0.00 0.01 0.01 0.01 0.01 0.01 0.01 0.01 0.01 0.01 0.01 0.01 0.01 0.01
0.00 0.00 0.00 0.00 0.00 0.00 0.00 0.00 0.00 0.00 0.00 0.00 0.00 0.00 0.00 0.00 0.00 0.00 0.00 0.00 0.00 0.00 0.00 0.00 0.00 0.00 0.00 0.00 0.00 0.00 0.00 0.00 0.01 0.01 0.01 0.01 0.01 0.01 0.01 0.01 0.01 0.01 0.01 0.01
0.00 0.00 0.00 0.00 0.00 0.00 0.00 0.00 0.00 0.00 0.00 0.00 0.00 0.00 0.00 0.00 0.00 0.00 0.00 0.00 0.00 0.00 0.00 0.00 0.00 0.00 0.00 0.00 0.00 0.00 0.00 0.00 0.00 0.00 0.00 0.01 0.01 0.01 0.01 0.01 0.01 0.01 0.01 0.01
MSLP
1020.67 1020.67 1020.70 1020.79 1020.97 1021.25 1021.62 1022.06 1022.56 1023.07 1023.57 1024.05 1024.51 1024.96 1025.44 1025.98 1026.61 1027.37 1028.25 1029.24 1030.31 1031.40 1032.43 1033.34 1034.07 1034.58 1034.85 1034.89 1034.74 1034.46 1034.09 1033.71 1033.34 1033.03 1032.79 1032.60 1032.46 1032.32 1032.18 1032.02 1031.82 1031.59 1031.33 1031.07
1021.24 1021.11 1021.00 1020.92 1020.93 1021.03 1021.24 1021.54 1021.92 1022.34 1022.80 1023.27 1023.74 1024.23 1024.76 1025.36 1026.06 1026.86 1027.79 1028.81 1029.88 1030.96 1031.98 1032.87 1033.58 1034.07 1034.34 1034.39 1034.26 1034.01 1033.70 1033.36 1033.06 1032.80 1032.61 1032.46 1032.35 1032.25 1032.12 1031.97 1031.77 1031.53 1031.26 1030.99
1021.91 1021.68 1021.41 1021.17 1020.99 1020.90 1020.94 1021.09 1021.36 1021.71 1022.13 1022.61 1023.12 1023.68 1024.29 1024.96 1025.72 1026.58 1027.52 1028.53 1029.58 1030.61 1031.56 1032.39 1033.04 1033.49 1033.74 1033.80 1033.70 1033.49 1033.24 1032.97 1032.73 1032.54 1032.40 1032.30 1032.22 1032.14 1032.02 1031.87 1031.66 1031.41 1031.12 1030.82
1022.53 1022.22 1021.85 1021.47 1021.14 1020.90 1020.79 1020.83 1021.00 1021.30 1021.70 1022.20 1022.77 1023.39 1024.08 1024.82 1025.63 1026.51 1027.44 1028.41 1029.38 1030.31 1031.17 1031.89 1032.46 1032.86 1033.08 1033.13 1033.06 1032.91 1032.73 1032.54 1032.38 1032.26 1032.18 1032.13 1032.08 1032.01 1031.90 1031.73 1031.51 1031.24 1030.93 1030.60
1022.92 1022.59 1022.17 1021.72 1021.31 1020.98 1020.79 1020.75 1020.87 1021.14 1021.56 1022.08 1022.70 1023.38 1024.12 1024.91 1025.74 1026.60 1027.48 1028.36 1029.23 1030.04 1030.76 1031.37 1031.84 1032.17 1032.35 1032.41 1032.38 1032.29 1032.18 1032.08 1032.00 1031.95 1031.93 1031.92 1031.90 1031.84 1031.73 1031.55 1031.32 1031.03 1030.69 1030.34
1022.94 1022.63 1022.24 1021.80 1021.39 1021.06 1020.85 1020.80 1020.92 1021.20 1021.63 1022.19 1022.83 1023.55 1024.32 1025.11 1025.91 1026.72 1027.53 1028.30 1029.04 1029.71 1030.30 1030.79 1031.17 1031.43 1031.59 1031.66 1031.67 1031.65 1031.61 1031.59 1031.59 1031.61 1031.65 1031.67 1031.67 1031.62 1031.51 1031.33 1031.08 1030.77 1030.42 1030.06
1022.53 1022.30 1021.99 1021.64 1021.31 1021.04 1020.90 1020.90 1021.06 1021.37 1021.83 1022.40 1023.06 1023.78 1024.53 1025.29 1026.04 1026.77 1027.47 1028.13 1028.74 1029.29 1029.75 1030.14 1030.44 1030.67 1030.82 1030.91 1030.96 1031.00 1031.04 1031.09 1031.16 1031.24 1031.31 1031.36 1031.37 1031.33 1031.21 1031.02 1030.77 1030.46 1030.10 1029.73
1021.75 1021.63 1021.45 1021.23 1021.03 1020.90 1020.87 1020.95 1021.18 1021.54 1022.02 1022.60 1023.25 1023.93 1024.63 1025.33 1026.00 1026.64 1027.24 1027.79 1028.28 1028.72 1029.10 1029.42 1029.68 1029.88 1030.04 1030.16 1030.27 1030.37 1030.47 1030.58 1030.69 1030.81 1030.90 1030.96 1030.98 1030.92 1030.80 1030.61 1030.35 1030.04 1029.70 1029.33
1020.72 1020.73 1020.69 1020.64 1020.61 1020.63 1020.73 1020.93 1021.23 1021.63 1022.12 1022.68 1023.29 1023.91 1024.54 1025.14 1025.73 1026.27 1026.77 1027.23 1027.65 1028.02 1028.35 1028.64 1028.89 1029.10 1029.28 1029.45 1029.60 1029.74 1029.89 1030.04 1030.18 1030.30 1030.40 1030.46 1030.46 1030.39 1030.26 1030.06 1029.81 1029.51 1029.18 1028.83
1019.64 1019.76 1019.87 1019.99 1020.12 1020.30 1020.53 1020.83 1021.19 1021.61 1022.09 1022.61 1023.15 1023.69 1024.22 1024.73 1025.21 1025.67 1026.10 1026.49 1026.87 1027.21 1027.53 1027.82 1028.09 1028.33 1028.55 1028.76 1028.95 1029.13 1029.30 1029.46 1029.60 1029.71 1029.79 1029.82 1029.80 1029.71 1029.56 1029.36 1029.11 1028.83 1028.52 1028.21
1018.68 1018.89 1019.13 1019.39 1019.67 1019.98 1020.32 1020.69 1021.09 1021.51 1021.95 1022.40 1022.85 1023.29 1023.72 1024.13 1024.52 1024.91 1025.28 1025.64 1025.99 1026.33 1026.67 1026.98 1027.29 1027.57 1027.83 1028.07 1028.29 1028.49 1028.66 1028.81 1028.94 1029.02 1029.07 1029.06 1029.01 1028.90 1028.74 1028.53 1028.29 1028.02 1027.74 1027.46
1017.95 1018.25 1018.59 1018.96 1019.36 1019.76 1020.17 1020.58 1020.98 1021.38 1021.76 1022.12 1022.47 1022.81 1023.13 1023.44 1023.76 1024.08 1024.41 1024.74 1025.09 1025.45 1025.81 1026.16 1026.49 1026.81 1027.10 1027.36 1027.59 1027.79 1027.96 1028.09 1028.18 1028.23 1028.24 1028.20 1028.11 1027.97 1027.80 1027.59 1027.36 1027.11 1026.86 1026.61
1017.49 1017.85 1018.27 1018.73 1019.20 1019.66 1020.11 1020.53 1020.92 1021.26 1021.57 1021.85 1022.10 1022.33 1022.55 1022.78 1023.02 1023.29 1023.58 1023.90 1024.24 1024.60 1024.97 1025.34 1025.70 1026.03 1026.34 1026.60 1026.83 1027.02 1027.16 1027.26 1027.32 1027.34 1027.32 1027.25 1027.14 1026.99 1026.81 1026.61 1026.38 1026.15 1025.93 1025.71
1017.25 1017.66 1018.14 1018.66 1019.18 1019.67 1020.14 1020.55 1020.90 1021.20 1021.44 1021.63 1021.79 1021.93 1022.07 1022.22 1022.40 1022.61 1022.86 1023.15 1023.47 1023.82 1024.18 1024.54 1024.89 1025.22 1025.51 1025.77 1025.98 1026.15 1026.27 1026.35 1026.39 1026.39 1026.35 1026.27 1026.15 1026.01 1025.83 1025.63 1025.42 1025.21 1025.00 1024.81
1017.13 1017.60 1018.12 1018.68 1019.23 1019.74 1020.20 1020.60 1020.92 1021.17 1021.35 1021.48 1021.57 1021.65 1021.72 1021.81 1021.93 1022.08 1022.28 1022.52 1022.80 1023.11 1023.43 1023.75 1024.07 1024.36 1024.63 1024.86 1025.04 1025.19 1025.30 1025.37 1025.40 1025.40 1025.36 1025.29 1025.18 1025.05 1024.89 1024.71 1024.51 1024.32 1024.12 1023.94
1017.06 1017.57 1018.13 1018.71 1019.28 1019.80 1020.25 1020.63 1020.92 1021.14 1021.29 1021.38 1021.43 1021.46 1021.49 1021.53 1021.60 1021.70 1021.84 1022.02 1022.23 1022.47 1022.73 1022.99 1023.24 1023.48 1023.70 1023.89 1024.05 1024.18 1024.27 1024.34 1024.39 1024.40 1024.38 1024.33 1024.25 1024.14 1024.00 1023.84 1023.66 1023.47 1023.29 1023.11
1016.96 1017.52 1018.12 1018.72 1019.29 1019.80 1020.24 1020.60 1020.88 1021.08 1021.21 1021.29 1021.32 1021.34 1021.35 1021.36 1021.39 1021.44 1021.51 1021.62 1021.75 1021.90 1022.07 1022.24 1022.42 1022.58 1022.74 1022.89 1023.02 1023.14 1023.23 1023.31 1023.37 1023.40 1023.41 1023.38 1023.33 1023.25 1023.13 1022.99 1022.82 1022.65 1022.46 1022.28
1016.87 1017.46 1018.07 1018.67 1019.23 1019.73 1020.15 1020.50 1020.76 1020.96 1021.09 1021.17 1021.22 1021.23 1021.24 1021.23 1021.23 1021.24 1021.25 1021.28 1021.32 1021.38 1021.45 1021.52 1021.61 1021.70 1021.80 1021.90 1022.00 1022.10 1022.19 1022.28 1022.35 1022.40 1022.43 1022.43 1022.40 1022.33 1022.23 1022.10 1021.94 1021.77 1021.58 1021.40
1016.82 1017.44 1018.06 1018.64 1019.17 1019.63 1020.01 1020.33 1020.58 1020.77 1020.91 1021.01 1021.07 1021.11 1021.12 1021.12 1021.10 1021.06 1021.02 1020.97 1020.93 1020.89 1020.85 1020.83 1020.83 1020.85 1020.88 1020.93 1021.00 1021.08 1021.16 1021.24 1021.31 1021.37 1021.41 1021.41 1021.38 1021.32 1021.22 1021.09 1020.94 1020.76 1020.57 1020.38
1016.92 1017.54 1018.13 1018.67 1019.14 1019.54 1019.88 1020.15 1020.38 1020.56 1020.70 1020.82 1020.90 1020.96 1020.98 1020.98 1020.94 1020.87 1020.78 1020.66 1020.53 1020.40 1020.28 1020.17 1020.08 1020.02 1019.99 1019.99 1020.02 1020.06 1020.12 1020.18 1020.23 1020.28 1020.29 1020.28 1020.23 1020.15 1020.04 1019.90 1019.74 1019.56 1019.37 1019.19
1017.20 1017.80 1018.35 1018.82 1019.22 1019.54 1019.80 1020.02 1020.20 1020.36 1020.49 1020.61 1020.70 1020.77 1020.81 1020.80 1020.74 1020.64 1020.50 1020.32 1020.12 1019.90 1019.69 1019.50 1019.33 1019.20 1019.11 1019.06 1019.03 1019.04 1019.05 1019.07 1019.09 1019.08 1019.06 1019.00 1018.92 1018.80 1018.66 1018.50 1018.33 1018.15 1017.97 1017.80
1017.69 1018.25 1018.73 1019.12 1019.42 1019.64 1019.82 1019.96 1020.09 1020.20 1020.32 1020.42 1020.51 1020.58 1020.60 1020.58 1020.50 1020.36 1020.17 1019.93 1019.66 1019.37 1019.08 1018.82 1018.58 1018.38 1018.22 1018.11 1018.03 1017.98 1017.94 1017.91 1017.86 1017.80 1017.71 1017.60 1017.46 1017.30 1017.12 1016.93 1016.74 1016.57 1016.40 1016.26
1018.33 1018.84 1019.24 1019.53 1019.73 1019.85 1019.93 1019.99 1020.05 1020.11 1020.19 1020.27 1020.34 1020.38 1020.38 1020.33 1020.22 1020.03 1019.79 1019.49 1019.15 1018.79 1018.43 1018.10 1017.79 1017.53 1017.32 1017.15 1017.02 1016.91 1016.81 1016.71 1016.59 1016.46 1016.30 1016.12 1015.92 1015.71 1015.49 1015.28 1015.08 1014.91 1014.76 1014.65
1019.04 1019.49 1019.81 1020.00 1020.09 1020.12 1020.11 1020.09 1020.08 1020.09 1020.11 1020.15 1020.18 1020.19 1020.16 1020.06 1019.90 1019.66 1019.35 1018.99 1018.59 1018.17 1017.75 1017.35 1016.99 1016.68 1016.42 1016.20 1016.01 1015.84 1015.69 1015.52 1015.35 1015.15 1014.92 1014.68 1014.42 1014.15 1013.90 1013.66 1013.46 1013.29 1013.16 1013.08
1019.73 1020.11 1020.34 1020.44 1020.44 1020.38 1020.30 1020.21 1020.14 1020.09 1020.07 1020.06 1020.05 1020.01 1019.92 1019.78 1019.55 1019.26 1018.89 1018.47 1018.01 1017.53 1017.06 1016.62 1016.22 1015.86 1015.56 1015.30 1015.07 1014.86 1014.66 1014.45 1014.21 1013.95 1013.67 1013.37 1013.06 1012.75 1012.46 1012.20 1011.98 1011.81 1011.70 1011.63
1020.32 1020.61 1020.76 1020.79 1020.72 1020.60 1020.46 1020.32 1020.20 1020.11 1020.05 1019.99 1019.93 1019.84 1019.70 1019.49 1019.21 1018.85 1018.43 1017.96 1017.45 1016.94 1016.43 1015.96 1015.53 1015.15 1014.82 1014.54 1014.29 1014.05 1013.81 1013.56 1013.28 1012.98 1012.65 1012.30 1011.95 1011.60 1011.27 1010.98 1010.73 1010.54 1010.42 1010.35
1020.76 1020.98 1021.05 1021.02 1020.90 1020.74 1020.56 1020.39 1020.24 1020.12 1020.02 1019.93 1019.82 1019.68 1019.49 1019.23 1018.90 1018.49 1018.03 1017.52 1016.98 1016.45 1015.93 1015.45 1015.01 1014.63 1014.29 1014.00 1013.73 1013.47 1013.21 1012.93 1012.62 1012.28 1011.91 1011.52 1011.11 1010.72 1010.34 1010.00 1009.71 1009.48 1009.31 1009.20
Thickness
5438 5442 5438 5433 5429 5424 5418 5422 5421 5435 5439 5446 5441 5432 5427 5424 5420 5416 5412 5407 5403 5398 5395 5391 5388 5386 5384 5384 5383 5383 5383 5383 5382 5382 5382 5383 5384 5383 5383 5383 5383 5382 5382 5382
5423 5431 5427 5424 5426 5423 5420 5417 5418 5422 5429 5435 5426 5420 5415 5410 5407 5404 5400 5396 5391 5387 5383 5379 5376 5374 5372 5370 5369 5369 5368 5368 5368 5368 5368 5369 5369 5369 5369 5369 5368 5367 5367 5367
5417 5424 5413 5416 5428 5423 5419 5416 5412 5414 5420 5417 5412 5409 5404 5399 5396 5392 5388 5384 5379 5374 5370 5367 5364 5362 5359 5357 5356 5355 5355 5354 5354 5354 5354 5355 5355 5355 5355 5354 5354 5353 5352 5352
5406 5404 5404 5435 5427 5423 5415 5410 5405 5402 5404 5403 5401 5396 5391 5388 5384 5380 5375 5370 5365 5361 5358 5355 5352 5349 5347 5345 5344 5342 5341 5341 5340 5340 5340 5340 5341 5341 5340 5340 5339 5339 5338 5337
5398 5397 5408 5425 5416 5406 5401 5399 5399 5395 5394 5390 5385 5383 5381 5377 5372 5366 5361 5357 5353 5349 5346 5343 5340 5337 5334 5332 5331 5329 5328 5328 5327 5326 5326 5326 5327 5326 5325 5325 5324 5324 5323 5323
5391 5389 5394 5415 5397 5393 5390 5386 5390 5385 5381 5377 5372 5372 5374 5361 5354 5350 5346 5342 5339 5336 5333 5329 5327 5324 5322 5320 5318 5316 5315 5314 5313 5313 5312 5312 5312 5312 5311 5310 5310 5310 5309 5309
5381 5383 5393 5388 5377 5380 5381 5387 5376 5372 5368 5362 5358 5357 5350 5343 5339 5335 5331 5328 5325 5321 5318 5315 5313 5311 5308 5306 5305 5303 5302 5300 5299 5298 5297 5297 5297 5297 5296 5295 5295 5294 5294 5294
5375 5376 5386 5366 5362 5365 5370 5364 5361 5358 5354 5349 5342 5337 5332 5328 5324 5321 5317 5314 5310 5306 5303 5301 5299 5297 5295 5293 5292 5290 5288 5286 5285 5283 5283 5283 5282 5282 5281 5279 5279 5278 5278 5278
5369 5375 5371 5358 5356 5354 5351 5348 5346 5343 5340 5336 5330 5325 5321 5315 5310 5307 5303 5300 5296 5293 5290 5287 5284 5283 5281 5279 5277 5276 5274 5272 5271 5269 5268 5268 5267 5266 5265 5264 5263 5263 5263 5264
5358 5360 5358 5350 5346 5342 5338 5335 5333 5330 5326 5323 5318 5313 5307 5303 5297 5293 5289 5286 5283 5279 5276 5273 5270 5269 5266 5264 5262 5260 5259 5258 5257 5255 5254 5253 5252 5252 5251 5249 5248 5248 5248 5248
5344 5346 5345 5345 5339 5334 5329 5324 5320 5317 5312 5309 5305 5300 5294 5289 5284 5279 5277 5272 5268 5264 5262 5259 5256 5254 5252 5250 5248 5245 5244 5243 5242 5241 5240 5238 5237 5236 5236 5235 5233 5233 5232 5231
5343 5342 5334 5335 5329 5323 5318 5313 5308 5303 5298 5294 5291 5286 5281 5275 5270 5266 5262 5258 5254 5251 5248 5245 5243 5240 5238 5235 5233 5230 5230 5228 5227 5226 5224 5223 5222 5222 5221 5220 5220 5219 5218 5218
5330 5326 5321 5318 5312 5308 5303 5298 5293 5289 5284 5279 5274 5270 5266 5261 5256 5252 5248 5244 5240 5237 5234 5231 5229 5226 5223 5221 5219 5216 5214 5212 5211 5210 5209 5208 5206 5205 5205 5205 5205 5204 5204 5204
5312 5309 5307 5303 5297 5292 5287 5282 5277 5272 5268 5264 5259 5255 5250 5246 5242 5237 5234 5230 5227 5223 5220 5217 5214 5212 5209 5207 5205 5202 5199 5198 5196 5194 5193 5191 5190 5189 5188 5188 5188 5187 5188 5188
5298 5294 5291 5286 5282 5277 5272 5266 5261 5257 5253 5249 5245 5240 5236 5231 5228 5224 5220 5217 5213 5210 5207 5203 5200 5198 5195 5193 5190 5187 5185 5182 5180 5178 5177 5176 5174 5173 5171 5170 5170 5169 5169 5170
5285 5280 5277 5272 5268 5263 5257 5252 5248 5245 5240 5235 5230 5226 5221 5217 5214 5211 5207 5203 5199 5197 5194 5190 5187 5185 5182 5179 5176 5173 5170 5169 5167 5164 5162 5160 5159 5157 5156 5154 5153 5152 5151 5151
5273 5270 5265 5261 5257 5252 5246 5241 5236 5232 5227 5222 5217 5213 5208 5204 5201 5197 5193 5190 5186 5183 5181 5178 5175 5173 5169 5166 5162 5159 5157 5154 5153 5150 5147 5145 5144 5142 5140 5138 5137 5136 5135 5135
5265 5262 5256 5251 5245 5240 5234 5229 5224 5219 5214 5210 5205 5200 5195 5191 5187 5184 5181 5177 5174 5171 5168 5166 5163 5160 5157 5153 5150 5147 5143 5140 5138 5135 5133 5131 5129 5127 5125 5123 5122 5121 5120 5120
5253 5249 5244 5238 5233 5228 5223 5217 5213 5208 5203 5198 5193 5188 5183 5179 5175 5172 5168 5164 5161 5158 5156 5153 5152 5148 5144 5140 5138 5134 5130 5127 5125 5122 5119 5118 5116 5113 5111 5109 5108 5107 5107 5106
5241 5237 5231 5226 5221 5216 5211 5206 5201 5196 5192 5187 5181 5176 5172 5168 5163 5159 5156 5152 5149 5147 5145 5142 5139 5135 5132 5128 5126 5122 5118 5115 5112 5109 5107 5104 5101 5099 5098 5097 5096 5095 5094 5094
5229 5224 5220 5214 5209 5204 5199 5195 5190 5185 5180 5175 5170 5165 5161 5156 5152 5147 5143 5142 5140 5136 5133 5131 5127 5124 5120 5117 5114 5110 5106 5103 5100 5097 5094 5092 5089 5087 5086 5084 5084 5083 5083 5083
5217 5213 5208 5203 5198 5193 5188 5183 5178 5173 5168 5164 5159 5154 5150 5145 5141 5137 5134 5131 5129 5127 5123 5119 5115 5112 5109 5107 5102 5098 5094 5091 5088 5085 5083 5081 5078 5076 5075 5074 5072 5072 5072 5072
5208 5203 5198 5192 5187 5182 5177 5172 5168 5163 5158 5154 5149 5145 5140 5136 5131 5127 5124 5122 5118 5116 5112 5108 5105 5103 5100 5095 5091 5087 5083 5080 5077 5074 5072 5070 5067 5066 5064 5063 5062 5061 5061 5061
5196 5192 5187 5181 5176 5171 5167 5163 5158 5154 5149 5144 5140 5135 5130 5126 5122 5118 5115 5112 5109 5106 5101 5098 5096 5093 5089 5084 5080 5076 5073 5070 5067 5064 5062 5059 5057 5056 5054 5053 5052 5052 5052 5052
5185 5180 5175 5170 5166 5163 5159 5154 5149 5144 5140 5136 5131 5126 5122 5117 5113 5109 5104 5100 5098 5095 5090 5087 5084 5081 5076 5072 5069 5065 5062 5059 5057 5055 5052 5050 5048 5046 5045 5043 5043 5042 5042 5043
5175 5171 5167 5163 5158 5153 5149 5144 5139 5135 5131 5126 5122 5117 5112 5108 5103 5099 5094 5091 5087 5084 5080 5076 5072 5069 5065 5062 5058 5055 5053 5050 5047 5045 5043 5041 5039 5038 5036 5035 5034 5033 5034 5034
5165 5162 5157 5153 5149 5144 5139 5134 5130 5125 5121 5116 5112 5108 5103 5099 5095 5090 5086 5082 5078 5074 5070 5066 5062 5059 5056 5052 5049 5047 5044 5042 5039 5037 5034 5032 5031 5029 5028 5027 5026 5026 5026 5026